OneWeb SL0137

operational
NORAD ID: 47274 Int'l Des: 2020-100 Owner: ONEWEB Country: UK Constellation: oneweb
LEOCIRCULARPOLARONEWEB_TYPE

Über OneWeb SL0137

Beschreibung wird geladen...

Live-Position

3D-Globus wird geladen...

Nächste Überflüge

Höhenverlauf

Altitude vs Time

uPlot chart will show altitude changes over time

Zweizeiliger Elementsatz

1 47274U 20100S 26035.68289792 .00000120 00000-0 29864-3 0 9999
2 47274 87.8942 16.9956 0001468 86.1654 273.9642 13.12444260247361
Epoch: 4. Feb. 2026 • Age: 15 hours

Aktueller Status

Höhe 1217.5 km
Geschwindigkeit 7.25 km/s
Subsatellitenpunkt 33.22°N, 56.57°W
Startdatum 18. Dez. 2020
Alter 5.1 years
Typ internet

Technische Details

Klassifizierung Payload
Masse 148.00 kg
Trockenmasse 140.00 kg
Gesamtmasse 148.00 kg
Länge 1.30 m
Durchmesser 1.00 m
Spannweite 5.00 m
Form Trapezoid+2 pan
Hersteller ONEWUS
Bus-Typ ARROW
Phasenstatus In Orbit
Besitzer/Staat ONEWEB/UK

Große Konstellationen

Loading constellations...